EZS34ML LECO-LSGG

Flight info

Callsign EZS34ML
Flight time 1h 43m
Altitude 32000
Route ROXER DCT LASKU M190 BLV/N0431F360 M601 GOSVI T429 TOPTU DCT TOU DCT GAI DCT MEN DCT NINUN/N0406F300 DCT LATAM DCT ETREK DCT LUXAN G53 LTP Z16 BELUS
Aircraft A320/M-SDE2E3FGHIJ1RWXYZ/LB1

Departure

Time 2026-04-17 10:33
Airport A Coruña Airport (LECO)

Arrival

Time 2026-04-17 12:17
Airport Geneva International Airport (LSGG)
Time Latitude Longitude Altitude Speed Heading
2026-04-17 10:20 43.30204 -8.38025 274 ft 0 kts 14°
2026-04-17 10:28 43.30208 -8.38021 275 ft 2 kts 35°
2026-04-17 10:29 43.30217 -8.37976 274 ft 8 kts 76°
2026-04-17 10:29 43.30265 -8.37911 274 ft 12 kts 48°
2026-04-17 10:29 43.30270 -8.37873 274 ft 0 kts 105°
2026-04-17 10:29 43.30269 -8.37871 274 ft 2 kts 105°
2026-04-17 10:30 43.30252 -8.37823 273 ft 9 kts 121°
2026-04-17 10:30 43.30229 -8.37725 272 ft 14 kts 72°
2026-04-17 10:30 43.30321 -8.37632 271 ft 19 kts 31°
2026-04-17 10:30 43.30448 -8.37528 273 ft 23 kts 31°
2026-04-17 10:31 43.30590 -8.37412 274 ft 24 kts 31°
2026-04-17 10:31 43.30732 -8.37295 274 ft 24 kts 31°
2026-04-17 10:31 43.30877 -8.37189 275 ft 19 kts
2026-04-17 10:31 43.30981 -8.37137 275 ft 14 kts 84°
2026-04-17 10:32 43.30939 -8.37124 279 ft 0 kts 210°
2026-04-17 10:32 43.30936 -8.37127 278 ft 7 kts 210°
2026-04-17 10:32 43.30635 -8.37374 275 ft 91 kts 211°
2026-04-17 10:33 43.29895 -8.37982 277 ft 153 kts 211°
2026-04-17 10:33 43.28944 -8.38772 891 ft 157 kts 211°
2026-04-17 10:33 43.27928 -8.39246 1639 ft 157 kts 184°
2026-04-17 10:33 43.26809 -8.38985 2052 ft 175 kts 153°
2026-04-17 10:34 43.25841 -8.37850 2342 ft 196 kts 122°
2026-04-17 10:34 43.25462 -8.35989 2757 ft 210 kts 85°
2026-04-17 10:34 43.25952 -8.34132 3465 ft 216 kts 51°
2026-04-17 10:34 43.27140 -8.32831 4163 ft 222 kts 33°
2026-04-17 10:35 43.28466 -8.31686 4894 ft 227 kts 32°
2026-04-17 10:35 43.29827 -8.30525 5568 ft 233 kts 32°
2026-04-17 10:35 43.31212 -8.29344 6271 ft 237 kts 32°
2026-04-17 10:35 43.32631 -8.28126 6985 ft 241 kts 32°
2026-04-17 10:36 43.33973 -8.26729 7635 ft 245 kts 51°
2026-04-17 10:36 43.34810 -8.24663 8066 ft 258 kts 76°
2026-04-17 10:36 43.35308 -8.22182 8381 ft 281 kts 78°
2026-04-17 10:36 43.35837 -8.19503 8889 ft 297 kts 77°
2026-04-17 10:37 43.36344 -8.16727 9635 ft 302 kts 84°
2026-04-17 10:37 43.36378 -8.13854 10390 ft 301 kts 102°
2026-04-17 10:37 43.35913 -8.10978 10741 ft 320 kts 108°
2026-04-17 10:37 43.35328 -8.07924 11052 ft 339 kts 108°
2026-04-17 10:38 43.34708 -8.04743 11647 ft 348 kts 108°
2026-04-17 10:38 43.34080 -8.01510 12348 ft 353 kts 108°
2026-04-17 10:38 43.33446 -7.98227 13017 ft 358 kts 108°
2026-04-17 10:38 43.32806 -7.94889 13687 ft 364 kts 108°
2026-04-17 10:39 43.32168 -7.91547 14300 ft 370 kts 108°
2026-04-17 10:39 43.31511 -7.88114 14900 ft 374 kts 108°
2026-04-17 10:39 43.30845 -7.84659 15514 ft 377 kts 108°
2026-04-17 10:39 43.30166 -7.81155 16129 ft 380 kts 108°
2026-04-17 10:40 43.29482 -7.77630 16747 ft 384 kts 109°
2026-04-17 10:40 43.28792 -7.74077 17366 ft 387 kts 109°
2026-04-17 10:40 43.28096 -7.70490 17978 ft 391 kts 109°
2026-04-17 10:40 43.27394 -7.66874 18567 ft 394 kts 109°
2026-04-17 10:41 43.26683 -7.63222 19075 ft 398 kts 109°
2026-04-17 10:41 43.25965 -7.59538 19567 ft 401 kts 109°
2026-04-17 10:41 43.25243 -7.55839 20045 ft 405 kts 109°
2026-04-17 10:41 43.24510 -7.52091 20553 ft 409 kts 109°
2026-04-17 10:42 43.23767 -7.48314 21046 ft 412 kts 109°
2026-04-17 10:42 43.23016 -7.44506 21532 ft 415 kts 109°
2026-04-17 10:42 43.22260 -7.40659 22008 ft 419 kts 108°
2026-04-17 10:42 43.21762 -7.36694 22471 ft 427 kts 98°
2026-04-17 10:43 43.21760 -7.32581 22932 ft 435 kts 87°
2026-04-17 10:43 43.22227 -7.28462 23384 ft 440 kts 82°
2026-04-17 10:43 43.22774 -7.24319 23832 ft 443 kts 82°
2026-04-17 10:43 43.23314 -7.20148 24211 ft 445 kts 82°
2026-04-17 10:44 43.23848 -7.15958 24638 ft 447 kts 82°
2026-04-17 10:44 43.24374 -7.11750 25032 ft 449 kts 82°
2026-04-17 10:44 43.24892 -7.07576 25430 ft 451 kts 82°
2026-04-17 10:44 43.25419 -7.03332 25818 ft 453 kts 82°
2026-04-17 10:45 43.25950 -6.99062 26201 ft 455 kts 83°
2026-04-17 10:45 43.26486 -6.94778 26583 ft 456 kts 82°
2026-04-17 10:45 43.27028 -6.90475 26960 ft 458 kts 82°
2026-04-17 10:45 43.27569 -6.86158 27332 ft 460 kts 83°
2026-04-17 10:46 43.28106 -6.81822 27679 ft 462 kts 83°
2026-04-17 10:46 43.28644 -6.77453 28045 ft 465 kts 83°
2026-04-17 10:46 43.29184 -6.73070 28405 ft 467 kts 83°
2026-04-17 10:46 43.29727 -6.68665 28759 ft 469 kts 83°
2026-04-17 10:47 43.30270 -6.64238 29111 ft 471 kts 83°
2026-04-17 10:47 43.30813 -6.59786 29440 ft 473 kts 83°
2026-04-17 10:47 43.31354 -6.55318 29772 ft 475 kts 83°
2026-04-17 10:47 43.31896 -6.50826 30103 ft 477 kts 83°
2026-04-17 10:48 43.32440 -6.46316 30374 ft 479 kts 83°
2026-04-17 10:48 43.32987 -6.41786 30624 ft 482 kts 83°
2026-04-17 10:48 43.33533 -6.37243 30905 ft 483 kts 83°
2026-04-17 10:48 43.34079 -6.32672 31176 ft 485 kts 83°
2026-04-17 10:49 43.34621 -6.28092 31442 ft 487 kts 83°
2026-04-17 10:49 43.35155 -6.23562 31747 ft 486 kts 83°
2026-04-17 10:49 43.35695 -6.18978 32066 ft 486 kts 83°
2026-04-17 10:49 43.36234 -6.14396 32191 ft 485 kts 83°
2026-04-17 10:50 43.36772 -6.09827 32209 ft 484 kts 83°
2026-04-17 10:50 43.37840 -6.00679 32210 ft 484 kts 83°
2026-04-17 10:51 43.38899 -5.91538 32210 ft 484 kts 83°
2026-04-17 10:51 43.39954 -5.82387 32206 ft 484 kts 83°
2026-04-17 10:52 43.40995 -5.73233 32204 ft 484 kts 84°
2026-04-17 10:52 43.42029 -5.64087 32199 ft 484 kts 83°
2026-04-17 10:53 43.43056 -5.54940 32192 ft 484 kts 83°
2026-04-17 10:53 43.44081 -5.45792 32192 ft 484 kts 83°
2026-04-17 10:54 43.45096 -5.36642 32192 ft 484 kts 84°
2026-04-17 10:54 43.46097 -5.27558 32193 ft 483 kts 83°
2026-04-17 10:55 43.47094 -5.18411 32192 ft 483 kts 84°
2026-04-17 10:55 43.48080 -5.09268 32202 ft 483 kts 84°
2026-04-17 10:56 43.49061 -5.00125 32201 ft 483 kts 84°
2026-04-17 10:56 43.50026 -4.90977 32201 ft 482 kts 84°
2026-04-17 10:57 43.50135 -4.81816 32204 ft 478 kts 97°
2026-04-17 10:57 43.49657 -4.72690 32205 ft 478 kts 97°
2026-04-17 10:58 43.49167 -4.63560 32199 ft 478 kts 97°
2026-04-17 10:58 43.48676 -4.54499 32190 ft 477 kts 97°
2026-04-17 10:59 43.48183 -4.45390 32195 ft 477 kts 97°
2026-04-17 10:59 43.47749 -4.36266 32198 ft 477 kts 96°
2026-04-17 11:00 43.47300 -4.27154 32206 ft 477 kts 97°
2026-04-17 11:00 43.46747 -4.18047 32203 ft 477 kts 98°
2026-04-17 11:01 43.46154 -4.08956 32213 ft 477 kts 98°
2026-04-17 11:01 43.45573 -3.99872 32213 ft 477 kts 98°
2026-04-17 11:02 43.44989 -3.90786 32216 ft 476 kts 100°
2026-04-17 11:02 43.43766 -3.81874 32218 ft 474 kts 104°
2026-04-17 11:03 43.42454 -3.72997 32190 ft 474 kts 104°
2026-04-17 11:03 43.41136 -3.64119 32185 ft 474 kts 104°
2026-04-17 11:04 43.39822 -3.55304 32189 ft 474 kts 105°
2026-04-17 11:04 43.38711 -3.47872 32191 ft 474 kts 105°
2026-04-17 11:05 43.37379 -3.39009 32179 ft 473 kts 105°
2026-04-17 11:05 43.36036 -3.30152 32189 ft 473 kts 104°
2026-04-17 11:06 43.34717 -3.21294 32186 ft 473 kts 104°
2026-04-17 11:06 43.33409 -3.12421 32190 ft 473 kts 104°
2026-04-17 11:07 43.32090 -3.03562 32183 ft 473 kts 104°
2026-04-17 11:07 43.30637 -2.94815 32193 ft 470 kts 111°
2026-04-17 11:08 43.27804 -2.86839 32191 ft 463 kts 126°
2026-04-17 11:08 43.24352 -2.79372 32173 ft 464 kts 126°
2026-04-17 11:09 43.20899 -2.71922 32173 ft 464 kts 126°
2026-04-17 11:09 43.17443 -2.64456 32169 ft 464 kts 126°
2026-04-17 11:10 43.12255 -2.53276 32170 ft 464 kts 126°
2026-04-17 11:10 43.08783 -2.45836 32172 ft 464 kts 126°
2026-04-17 11:11 43.05300 -2.38395 32169 ft 464 kts 126°
2026-04-17 11:11 43.01817 -2.30962 32517 ft 464 kts 126°
2026-04-17 11:12 43.00075 -2.27251 32895 ft 463 kts 126°
2026-04-17 11:12 42.98337 -2.23552 33276 ft 462 kts 126°
2026-04-17 11:12 42.96607 -2.19863 33689 ft 460 kts 126°
2026-04-17 11:12 42.94892 -2.16183 34055 ft 459 kts 126°
2026-04-17 11:13 42.93183 -2.12505 34343 ft 459 kts 126°
2026-04-17 11:13 42.91476 -2.08827 34661 ft 458 kts 126°
2026-04-17 11:13 42.89774 -2.05162 34946 ft 457 kts 126°
2026-04-17 11:13 42.88073 -2.01503 35222 ft 457 kts 126°
2026-04-17 11:14 42.86392 -1.97900 35490 ft 456 kts 126°
2026-04-17 11:14 42.84687 -1.94256 35739 ft 456 kts 126°
2026-04-17 11:14 42.82977 -1.90614 35990 ft 456 kts 126°
2026-04-17 11:14 42.81265 -1.86979 36156 ft 456 kts 126°
2026-04-17 11:15 42.77870 -1.79758 36192 ft 451 kts 126°
2026-04-17 11:15 42.74493 -1.72579 36191 ft 450 kts 126°
2026-04-17 11:16 42.71560 -1.65022 36196 ft 453 kts 118°
2026-04-17 11:16 42.68847 -1.57283 36193 ft 453 kts 118°
2026-04-17 11:17 42.66130 -1.49556 36172 ft 453 kts 118°
2026-04-17 11:17 42.63565 -1.41723 36174 ft 457 kts 109°
2026-04-17 11:18 42.62632 -1.33233 36166 ft 461 kts 89°
2026-04-17 11:18 42.63634 -1.24577 36152 ft 462 kts 78°
2026-04-17 11:19 42.64975 -1.16084 36147 ft 463 kts 78°
2026-04-17 11:19 42.66305 -1.07532 36150 ft 463 kts 78°
2026-04-17 11:20 42.67627 -0.98975 36157 ft 463 kts 78°
2026-04-17 11:20 42.68953 -0.90403 36169 ft 463 kts 78°
2026-04-17 11:21 42.70272 -0.81833 36163 ft 463 kts 78°
2026-04-17 11:21 42.71587 -0.73257 36177 ft 463 kts 78°
2026-04-17 11:22 42.72898 -0.64680 36182 ft 463 kts 78°
2026-04-17 11:22 42.74190 -0.56097 36189 ft 463 kts 78°
2026-04-17 11:23 42.75478 -0.47516 36199 ft 463 kts 78°
2026-04-17 11:23 42.76762 -0.38934 36199 ft 462 kts 78°
2026-04-17 11:24 42.78033 -0.30402 36207 ft 463 kts 78°
2026-04-17 11:24 42.79567 -0.21924 36210 ft 461 kts 68°
2026-04-17 11:25 42.82701 -0.14341 36205 ft 457 kts 49°
2026-04-17 11:25 42.86738 -0.07647 36206 ft 457 kts 49°
2026-04-17 11:26 42.90764 -0.00924 36206 ft 458 kts 49°
2026-04-17 11:26 42.94784 0.05803 36208 ft 457 kts 49°
2026-04-17 11:27 42.98795 0.12519 36223 ft 456 kts 48°
2026-04-17 11:27 43.02802 0.19237 36211 ft 456 kts 49°
2026-04-17 11:28 43.06808 0.25956 36219 ft 456 kts 49°
2026-04-17 11:28 43.10804 0.32691 36209 ft 456 kts 49°
2026-04-17 11:29 43.14795 0.39444 36209 ft 456 kts 49°
2026-04-17 11:29 43.18780 0.46194 36223 ft 455 kts 48°
2026-04-17 11:30 43.22739 0.52904 36225 ft 455 kts 49°
2026-04-17 11:30 43.26715 0.59664 36214 ft 455 kts 49°
2026-04-17 11:31 43.30684 0.66442 36217 ft 455 kts 49°
2026-04-17 11:31 43.34651 0.73219 36209 ft 455 kts 49°
2026-04-17 11:32 43.38612 0.79994 36208 ft 454 kts 49°
2026-04-17 11:32 43.42565 0.86771 36215 ft 454 kts 49°
2026-04-17 11:33 43.46508 0.93555 36221 ft 454 kts 49°
2026-04-17 11:33 43.50441 1.00351 36217 ft 454 kts 49°
2026-04-17 11:34 43.54348 1.07105 36209 ft 454 kts 49°
2026-04-17 11:34 43.58307 1.13948 36204 ft 453 kts 49°
2026-04-17 11:35 43.62200 1.20708 36201 ft 453 kts 48°
2026-04-17 11:35 43.66111 1.27520 36205 ft 452 kts 48°
2026-04-17 11:36 43.69988 1.34369 36199 ft 453 kts 50°
2026-04-17 11:36 43.73730 1.41374 36194 ft 453 kts 51°
2026-04-17 11:37 43.77428 1.48428 36191 ft 453 kts 51°
2026-04-17 11:37 43.81144 1.55465 36196 ft 452 kts 50°
2026-04-17 11:38 43.84875 1.62477 36209 ft 452 kts 50°
2026-04-17 11:38 43.88599 1.69488 36213 ft 452 kts 50°
2026-04-17 11:39 43.92308 1.76515 36208 ft 451 kts 50°
2026-04-17 11:39 43.96009 1.83549 36204 ft 451 kts 51°
2026-04-17 11:40 43.99625 1.90696 36204 ft 452 kts 52°
2026-04-17 11:40 44.03164 1.97907 36217 ft 451 kts 52°
2026-04-17 11:41 44.06710 2.05113 36215 ft 451 kts 51°
2026-04-17 11:41 44.10270 2.12290 36209 ft 451 kts 51°
2026-04-17 11:42 44.13840 2.19476 36209 ft 451 kts 51°
2026-04-17 11:42 44.17372 2.26623 36205 ft 451 kts 52°
2026-04-17 11:43 44.20917 2.33834 36219 ft 451 kts 51°
2026-04-17 11:43 44.24459 2.41047 36216 ft 450 kts 51°
2026-04-17 11:44 44.27992 2.48264 36214 ft 450 kts 52°
2026-04-17 11:44 44.31515 2.55488 36224 ft 450 kts 52°
2026-04-17 11:45 44.35038 2.62720 36214 ft 450 kts 52°
2026-04-17 11:45 44.38557 2.69962 36226 ft 450 kts 52°
2026-04-17 11:46 44.42071 2.77207 36227 ft 450 kts 52°
2026-04-17 11:46 44.45579 2.84459 36206 ft 450 kts 52°
2026-04-17 11:47 44.49084 2.91718 36210 ft 450 kts 52°
2026-04-17 11:47 44.52575 2.98984 36195 ft 450 kts 52°
2026-04-17 11:48 44.56067 3.06262 36207 ft 450 kts 52°
2026-04-17 11:48 44.59553 3.13547 36209 ft 450 kts 53°
2026-04-17 11:49 44.62902 3.20920 36204 ft 451 kts 56°
2026-04-17 11:49 44.65960 3.28622 36205 ft 452 kts 58°
2026-04-17 11:50 44.68940 3.36393 36199 ft 452 kts 58°
2026-04-17 11:50 44.71986 3.44119 36206 ft 452 kts 57°
2026-04-17 11:51 44.75069 3.51812 36199 ft 451 kts 57°
2026-04-17 11:51 44.78145 3.59509 36198 ft 451 kts 57°
2026-04-17 11:52 44.81208 3.67234 36203 ft 451 kts 58°
2026-04-17 11:52 44.83739 3.73653 36202 ft 451 kts 58°
2026-04-17 11:53 44.86780 3.81370 36207 ft 451 kts 58°
2026-04-17 11:53 44.89820 3.89104 36209 ft 451 kts 58°
2026-04-17 11:54 44.92854 3.96837 36214 ft 450 kts 58°
2026-04-17 11:54 44.95879 4.04582 36212 ft 450 kts 58°
2026-04-17 11:55 44.98889 4.12314 36204 ft 449 kts 58°
2026-04-17 11:55 45.01882 4.20011 36205 ft 449 kts 58°
2026-04-17 11:56 45.04890 4.27762 36179 ft 451 kts 58°
2026-04-17 11:56 45.06400 4.31664 36000 ft 452 kts 58°
2026-04-17 11:56 45.07927 4.35609 34979 ft 462 kts 59°
2026-04-17 11:57 45.09480 4.39624 34048 ft 469 kts 59°
2026-04-17 11:57 45.11049 4.43690 33016 ft 474 kts 59°
2026-04-17 11:57 45.12624 4.47784 32325 ft 472 kts 59°
2026-04-17 11:57 45.14185 4.51857 31696 ft 468 kts 59°
2026-04-17 11:58 45.15724 4.55889 31053 ft 465 kts 59°
2026-04-17 11:58 45.17259 4.59920 30399 ft 462 kts 60°
2026-04-17 11:58 45.18782 4.63919 29703 ft 459 kts 59°
2026-04-17 11:58 45.20293 4.67875 29098 ft 454 kts 59°
2026-04-17 11:59 45.21790 4.71791 28492 ft 449 kts 59°
2026-04-17 11:59 45.23273 4.75673 27887 ft 445 kts 60°
2026-04-17 11:59 45.24740 4.79523 27291 ft 442 kts 60°
2026-04-17 11:59 45.26194 4.83351 26690 ft 438 kts 60°
2026-04-17 12:00 45.27625 4.87133 26105 ft 435 kts 60°
2026-04-17 12:00 45.29053 4.90914 25531 ft 432 kts 60°
2026-04-17 12:00 45.30464 4.94658 24971 ft 429 kts 60°
2026-04-17 12:00 45.31868 4.98374 24427 ft 425 kts 60°
2026-04-17 12:01 45.33262 5.02065 23891 ft 422 kts 60°
2026-04-17 12:01 45.34639 5.05713 23319 ft 418 kts 60°
2026-04-17 12:01 45.36002 5.09334 22826 ft 413 kts 60°
2026-04-17 12:01 45.37349 5.12921 22334 ft 408 kts 60°
2026-04-17 12:02 45.38671 5.16450 21845 ft 404 kts 60°
2026-04-17 12:02 45.39984 5.19965 21340 ft 400 kts 60°
2026-04-17 12:02 45.41286 5.23448 20860 ft 397 kts 60°
2026-04-17 12:02 45.42579 5.26908 20342 ft 395 kts 60°
2026-04-17 12:03 45.43866 5.30352 19832 ft 393 kts 60°
2026-04-17 12:03 45.45145 5.33785 19312 ft 392 kts 61°
2026-04-17 12:03 45.46419 5.37209 18788 ft 391 kts 61°
2026-04-17 12:03 45.47735 5.40591 18228 ft 389 kts 55°
2026-04-17 12:04 45.49418 5.43578 17693 ft 385 kts 43°
2026-04-17 12:04 45.51447 5.45971 17177 ft 380 kts 32°
2026-04-17 12:04 45.53709 5.47892 16673 ft 377 kts 28°
2026-04-17 12:04 45.55969 5.49760 16159 ft 375 kts 28°
2026-04-17 12:05 45.58220 5.51623 15654 ft 373 kts 28°
2026-04-17 12:05 45.60461 5.53484 15146 ft 372 kts 29°
2026-04-17 12:05 45.62663 5.55323 14967 ft 361 kts 29°
2026-04-17 12:05 45.64792 5.57105 14837 ft 348 kts 29°
2026-04-17 12:06 45.66847 5.58827 14722 ft 337 kts 29°
2026-04-17 12:06 45.68840 5.60478 14604 ft 326 kts 28°
2026-04-17 12:06 45.70792 5.62038 14406 ft 317 kts 27°
2026-04-17 12:06 45.72714 5.63543 13836 ft 312 kts 27°
2026-04-17 12:07 45.74615 5.65020 13190 ft 309 kts 27°
2026-04-17 12:07 45.76492 5.66478 12718 ft 305 kts 27°
2026-04-17 12:07 45.78355 5.67933 12321 ft 306 kts 27°
2026-04-17 12:07 45.80222 5.69403 11914 ft 307 kts 27°
2026-04-17 12:08 45.82085 5.70878 11557 ft 305 kts 27°
2026-04-17 12:08 45.83948 5.72357 11180 ft 305 kts 28°
2026-04-17 12:08 45.85795 5.73825 10797 ft 303 kts 28°
2026-04-17 12:08 45.87631 5.75244 10340 ft 296 kts 22°
2026-04-17 12:09 45.89552 5.76115 10062 ft 295 kts 11°
2026-04-17 12:09 45.91573 5.76692 9255 ft 296 kts 10°
2026-04-17 12:09 45.93578 5.77246 8652 ft 290 kts
2026-04-17 12:09 45.95563 5.77791 7930 ft 290 kts 10°
2026-04-17 12:10 45.97527 5.78331 7361 ft 284 kts 10°
2026-04-17 12:10 45.99403 5.78850 7227 ft 268 kts 10°
2026-04-17 12:10 46.01183 5.79349 7095 ft 253 kts 12°
2026-04-17 12:10 46.02782 5.80312 7001 ft 248 kts 36°
2026-04-17 12:11 46.04058 5.81981 6633 ft 251 kts 47°
2026-04-17 12:11 46.05264 5.83819 6269 ft 252 kts 47°
2026-04-17 12:11 46.06462 5.85588 5922 ft 240 kts 45°
2026-04-17 12:12 46.08696 5.88831 5326 ft 218 kts 45°
2026-04-17 12:12 46.09740 5.90349 5050 ft 208 kts 45°
2026-04-17 12:12 46.10722 5.91779 4801 ft 195 kts 45°
2026-04-17 12:12 46.11654 5.93136 4523 ft 184 kts 44°
2026-04-17 12:13 46.12529 5.94412 4277 ft 174 kts 44°
2026-04-17 12:13 46.13359 5.95620 4053 ft 166 kts 44°
2026-04-17 12:13 46.14153 5.96779 3839 ft 159 kts 44°
2026-04-17 12:13 46.14926 5.97906 3643 ft 158 kts 44°
2026-04-17 12:14 46.15680 5.99006 3443 ft 150 kts 44°
2026-04-17 12:14 46.16396 6.00051 3239 ft 145 kts 45°
2026-04-17 12:14 46.17098 6.01076 3061 ft 143 kts 45°
2026-04-17 12:14 46.17792 6.02090 2865 ft 142 kts 44°
2026-04-17 12:15 46.18483 6.03100 2690 ft 141 kts 45°
2026-04-17 12:15 46.19165 6.04096 2497 ft 139 kts 45°
2026-04-17 12:15 46.19838 6.05082 2298 ft 138 kts 46°
2026-04-17 12:15 46.20510 6.06065 2089 ft 135 kts 46°
2026-04-17 12:16 46.21176 6.07040 1910 ft 136 kts 45°
2026-04-17 12:16 46.21838 6.08018 1709 ft 136 kts 44°
2026-04-17 12:16 46.22502 6.08988 1530 ft 136 kts 45°
2026-04-17 12:16 46.23154 6.09936 1410 ft 125 kts 45°
2026-04-17 12:17 46.23667 6.10694 1382 ft 82 kts 45°
2026-04-17 12:17 46.23872 6.11017 1378 ft 13 kts 87°
2026-04-17 12:17 46.23804 6.11077 1380 ft 11 kts 171°
2026-04-17 12:17 46.23756 6.11088 1383 ft 4 kts 171°
2026-04-17 12:18 46.23749 6.11089 1384 ft 0 kts 171°
2026-04-17 12:18 46.23731 6.11091 1385 ft 5 kts 183°
2026-04-17 12:18 46.23710 6.11079 1385 ft 6 kts 205°
2026-04-17 12:18 46.23648 6.11098 1396 ft 11 kts 139°
2026-04-17 12:19 46.23598 6.11161 1395 ft 10 kts 154°
2026-04-17 12:19 46.23534 6.11106 1398 ft 12 kts 225°
2026-04-17 12:19 46.23477 6.11024 1397 ft 11 kts 225°
2026-04-17 12:19 46.23428 6.10952 1402 ft 10 kts 225°
2026-04-17 12:20 46.23383 6.10886 1395 ft 8 kts 225°
2026-04-17 12:20 46.23330 6.10813 1399 ft 13 kts 214°
2026-04-17 12:20 46.23253 6.10773 1393 ft 11 kts 200°
2026-04-17 12:20 46.23198 6.10705 1404 ft 9 kts 221°
2026-04-17 12:21 46.23160 6.10733 1400 ft 6 kts 137°
2026-04-17 12:21 46.23154 6.10742 1398 ft 0 kts 135°